Location: Livorno
(43.5500°N, 10.3170°E)
Time: 13:30:49
(UTC+01:00)

ISS - Visible Passes

Search period start: 03 December 2022 00:00
Search period end: 13 December 2022 00:00
Orbit: 414 x 420 km, 51.6° (Epoch: 03 December)

Date Brightness Start Highest point End Pass type
(mag) Time Alt. Az. Time Alt. Az. Time Alt. Az.
03 Dec -3.3 17:52:36 10° NW 17:55:50 41° NNE 17:57:24 24° E visible
03 Dec -0.7 19:29:32 10° WNW 19:30:21 16° W 19:30:21 16° W visible
04 Dec -3.2 18:41:14 10° WNW 18:44:29 52° SW 18:44:44 50° SSW visible
05 Dec -3.8 17:53:02 10° WNW 17:56:23 87° SSW 17:59:23 12° SE visible
05 Dec -0.5 19:31:22 10° WSW 19:32:22 12° SW 19:32:22 12° SW visible
06 Dec -1.1 18:42:11 10° W 18:44:41 20° SW 18:47:11 10° S visible
07 Dec -1.9 17:53:37 10° WNW 17:56:39 32° SW 17:59:40 10° SSE visible
09 Dec -0.4 17:55:08 10° WSW 17:56:38 12° SW 17:58:07 10° SSW visible
